Regional Weather Roundup
Issued by NWS

Home | Current Version | Previous Version | Text Only | Print | Product List | Glossary Off
Versions: 1 2 3 4 5 6 7 8 9 10 11 12 13 14 15 16 17 18 19 20 21 22 23 24 25 26 27 28 29 30 31 32 33 34 35 36 37 38 39 40 41 42 43 44 45 46 47 48 49 50

000
ASUS43 KMKX 311310
RWRWI

WISCONSIN REGIONAL WEATHER ROUNDUP
NATIONAL WEATHER SERVICE MILWAUKEE/SULLIVAN WI
700 AM CST SAT JAN 31 2015

NOTE: "FAIR" INDICATES FEW OR NO CLOUDS BELOW 12,000 FEET WITH NO
SIGNIFICANT WEATHER AND/OR OBSTRUCTIONS TO VISIBILITY.

WIZ001-002-006>008-014>016-023>028-311400-
NORTHWEST WISCONSIN

CITY           SKY/WX    TMP DP  RH WIND       PRES   REMARKS
SUPERIOR ARPT  CLOUDY    23  16  74 NW8       30.20R WCI  14
ASHLAND        CLOUDY    22  15  75 W7        30.17R WCI  13
HAYWARD        CLOUDY    21  15  78 CALM      30.14S
SIREN          CLOUDY    23  19  83 N5        30.16S WCI  17
CUMBERLAND     CLOUDY    21  19  93 NW6       30.12F WCI  14
RICE LAKE      CLOUDY    20  16  81 CALM      30.15S
CHETEK         CLOUDY    20  14  77 CALM      30.15R
LADYSMITH      CLOUDY    20  14  76 CALM      30.15R
EAU CLAIRE     CLOUDY    23  14  68 CALM      30.15R
MENOMONIE      CLOUDY    24  19  78 CALM      30.15R
NEW RICHMOND   CLOUDY    26  21  83 CALM      30.15R
OSCEOLA        CLOUDY    26  22  85 CALM      30.17F
$$

WIZ003>005-009-010-017-018-311400-
NORTH CENTRAL WISCONSIN

CITY           SKY/WX    TMP DP  RH WIND       PRES   REMARKS
MANITOWISH WTR CLOUDY    18  16  93 W3        30.09R
ARBOR VITAE    CLOUDY    19  17  89 CALM      30.09S
WOODRUFF       CLOUDY    19  17  89 CALM      30.09S
RHINELANDER    CLOUDY    18  13  80 W7        30.09R WCI   9
EAGLE RIVER    CLOUDY    17  13  84 CALM      30.07S
LAND O LAKES   CLOUDY    18  15  88 W5        30.09R WCI  11
PHILLIPS       CLOUDY    19  14  82 CALM      30.11R
TOMAHAWK       CLOUDY    19  15  82 CALM      30.11S
MEDFORD        CLOUDY    19  14  79 NW3       30.10S
MERRILL        CLOUDY    20  13  73 CALM      30.11S
$$

WIZ029-030-035-036-043>047-311400-
CENTRAL WISCONSIN

CITY           SKY/WX    TMP DP  RH WIND       PRES   REMARKS
WAUSAU         CLOUDY    20  11  68 NW3       30.11R
MOSINEE        CLOUDY    19  14  79 CALM      30.13R
MARSHFIELD     CLOUDY    21  14  74 CALM      30.12R
STEVENS POINT  CLOUDY    20  13  73 CALM      30.14R
WAUPACA        CLOUDY    23  15  72 CALM      30.16R
WAUTOMA        CLOUDY    20  15  81 CALM      30.16S
WISC RAPIDS    CLOUDY    22  13  68 CALM      30.15R
CAMP DOUGLAS   CLOUDY    26  20  81 SW3       30.15R
$$

WIZ011>013-019>022-031-037>040-048>050-311400-
NORTHEAST WISCONSIN

CITY           SKY/WX    TMP DP  RH WIND       PRES   REMARKS
ANTIGO         CLOUDY    19  12  76 W7        30.10S WCI   9
SHAWANO        CLOUDY    23  13  67 CALM      30.15S
OCONTO         CLOUDY    22  14  71 MISG      30.15R
STURGEON BAY   CLOUDY    21  12  68 W8        30.16R WCI  12
GREEN BAY      CLOUDY    22  16  78 SW7       30.16R WCI  13
MANITOWOC      CLOUDY    24  18  77 W10       30.16S WCI  14
APPLETON       CLOUDY    21  16  79 SW8       30.15R WCI  12
CLINTONVILLE   CLOUDY    21  14  73 CALM      30.15R
OSHKOSH        CLOUDY    23  16  74 SW7       30.15S WCI  15
$$

WIZ032>034-041-042-053>061-311400-
SOUTHWEST WISCONSIN

CITY           SKY/WX    TMP DP  RH WIND       PRES   REMARKS
LA CROSSE      CLOUDY    24  16  71 S6        30.17R WCI  17
SPARTA         CLOUDY    26  16  67 CALM      30.16S
VIROQUA        CLOUDY    22  16  79 SW5       30.14R WCI  15
BOSCOBEL       PTCLDY    14  10  84 CALM      30.20R
PRAIRIE DU CHI PTCLDY    19  13  79 CALM      30.19R
PLATTEVILLE    PTCLDY    20  17  86 S6        30.17S WCI  13
$$

WIZ056-057-062-063-064-067-068-311400-
SOUTH CENTRAL WISCONSIN

CITY           SKY/WX    TMP DP  RH WIND       PRES   REMARKS
REEDSBURG      CLOUDY    20  14  80 CALM      30.16S
BARABOO/DELLS  PTCLDY    20  14  76 W5        30.16S WCI  14
LONE ROCK      PTCLDY    16  11  80 CALM      30.19R
MINERAL POINT  PTCLDY    23  18  80 S3        30.16R
MADISON        PTCLDY    23  15  71 CALM      30.18R
MIDDLETON      CLEAR     23  16  73 W7        30.18R WCI  15
WATERTOWN      CLEAR     21  18  85 SW5       30.18R WCI  15
MONROE         PTCLDY    21  19  93 SW10      30.17R WCI  10
JANESVILLE     CLEAR     23  18  80 SW6       30.19S WCI  16
$$

WIZ051-052-058>065-066-070>072-311400-
SOUTHEAST WISCONSIN

CITY           SKY/WX    TMP DP  RH WIND       PRES   REMARKS
MILWAUKEE      CLOUDY    25  17  72 SW13      30.18F WCI  14
WAUKESHA       CLOUDY    21  16  79 SW5       30.18F WCI  15
MILWAUKEE/TIMM CLOUDY    25  16  68 SW9       30.18F WCI  15
RACINE         CLOUDY    25  17  72 SW9       30.21S WCI  15
BURLINGTON     CLOUDY    25  19  77 SW6       30.19S WCI  18
KENOSHA        CLOUDY    26  19  74 SW9       30.20S WCI  17
FOND DU LAC    CLOUDY    22  15  75 SW7       30.17R WCI  13
SHEBOYGAN      CLOUDY    24  16  71 W6        30.16S WCI  17
WEST BEND      CLOUDY    25  18  74 SW8       30.17R WCI  16
JUNEAU         PTCLDY    19  15  88 S6        30.18R WCI  10
$$

LSZ147-162-311400-
LAKE SUPERIOR

STATION/POSITION TIME  TEMP    WIND        PRES    WAVE
                       AIR SEA DIR/SP/G            HT/PER
                 (UTC) (F)     (DEG/KT/KT) (MB)    (FT/S)
DEVILS ISLAND    1300   24     320/ 12/ 14 1022.5R
PORT WING        1240   24     310/ 14/ 17 1022.0R
SAXON HARBOR     1240   23     220/  3/  6 1021.3R
$$

LMZ867-665-643>646-311400-
LAKE MICHIGAN

STATION/POSITION TIME  TEMP    WIND        PRES    WAVE
                       AIR SEA DIR/SP/G            HT/PER
                 (UTC) (F)     (DEG/KT/KT) (MB)    (FT/S)
NORTHPORT PIER   1219   21     240/  5/ 13 1020.3S
SISTER BAY       1213   21     240/ 11/ 12   N/A
KEWAUNEE LAKESHO 1200   23     260/  7/  9 1020.0F
SHEBOYGAN LAKESH 1300   24     230/  7/  9 1022.8F
PORT WASHINGTON  1200   24     240/  5/  7 1022.4
MILWAUKEE LAKESH 1200   24     240/ 14/ 17   N/A
KENOSHA   LAKESH 1300   28     230/  9/ 16 1022.7F
$$

TC  - TEMPERATURE IN CELSIUS
VSB - VISIBILITY IN STATUTE MILES
WCI - WIND CHILL INDEX
HX  - HEAT INDEX




USA.gov is the U.S. government's official web portal to all federal, state and local government web resources and services.